TimePDT,TemperatureF,Dew PointF,Humidity,Sea Level PressureIn,VisibilityMPH,Wind Direction,Wind SpeedMPH,Gust SpeedMPH,PrecipitationIn,Events,Conditions,WindDirDegrees,DateUTC
12:53 AM,66.9,46.9,49,29.81,10.0,NNE,3.5,-,N/A,,Partly Cloudy,30,2013-08-25 07:53:00
1:53 AM,64.9,50.0,58,29.83,10.0,ENE,4.6,-,N/A,,Mostly Cloudy,60,2013-08-25 08:53:00
2:53 AM,64.0,52.0,65,29.87,10.0,Calm,Calm,-,N/A,,Mostly Cloudy,0,2013-08-25 09:53:00
3:53 AM,62.1,54.0,75,29.85,10.0,North,3.5,-,0.01,,Overcast,10,2013-08-25 10:53:00
4:07 AM,62.6,53.6,72,29.91,10.0,Calm,Calm,-,N/A,Thunderstorm,Overcast,0,2013-08-25 11:07:00
4:22 AM,62.6,53.6,72,29.92,10.0,NE,3.5,-,N/A,,Overcast,50,2013-08-25 11:22:00
4:53 AM,62.1,54.0,75,29.87,10.0,Calm,Calm,-,N/A,,Mostly Cloudy,0,2013-08-25 11:53:00
5:53 AM,64.0,51.1,63,29.89,10.0,Calm,Calm,-,N/A,,Mostly Cloudy,0,2013-08-25 12:53:00
6:53 AM,61.0,54.0,78,29.89,10.0,Calm,Calm,-,0.01,,Mostly Cloudy,0,2013-08-25 13:53:00
7:53 AM,62.1,55.0,78,29.91,10.0,Calm,Calm,-,N/A,,Mostly Cloudy,0,2013-08-25 14:53:00
8:53 AM,66.9,53.1,61,29.91,10.0,ENE,4.6,-,N/A,,Mostly Cloudy,70,2013-08-25 15:53:00
9:53 AM,71.1,52.0,51,29.90,10.0,East,3.5,-,N/A,,Scattered Clouds,90,2013-08-25 16:53:00
10:53 AM,73.9,54.0,50,29.89,10.0,Calm,Calm,-,N/A,,Scattered Clouds,0,2013-08-25 17:53:00
11:53 AM,73.9,53.1,48,29.88,10.0,WNW,6.9,-,N/A,,Clear,290,2013-08-25 18:53:00
12:53 PM,79.0,53.1,40,29.85,10.0,Calm,Calm,-,N/A,,Clear,0,2013-08-25 19:53:00
1:53 PM,82.0,50.0,33,29.83,10.0,Calm,Calm,-,N/A,,Clear,0,2013-08-25 20:53:00
2:53 PM,82.0,50.0,33,29.81,10.0,NW,3.5,-,N/A,,Partly Cloudy,320,2013-08-25 21:53:00
3:53 PM,84.9,51.1,31,29.78,10.0,NNW,3.5,-,N/A,,Clear,340,2013-08-25 22:53:00
4:53 PM,84.9,48.9,29,29.77,10.0,Variable,3.5,-,N/A,,Clear,0,2013-08-25 23:53:00
5:53 PM,84.0,50.0,31,29.76,10.0,Calm,Calm,-,N/A,,Clear,0,2013-08-26 00:53:00
6:53 PM,81.0,50.0,34,29.76,10.0,North,4.6,-,N/A,,Clear,360,2013-08-26 01:53:00
7:53 PM,78.1,50.0,37,29.74,10.0,NNW,5.8,-,N/A,,Clear,340,2013-08-26 02:53:00
8:43 PM,77.0,50.0,39,29.85,7.0,West,20.7,36.8,N/A,Thunderstorm,Scattered Clouds,260,2013-08-26 03:43:00
8:51 PM,66.2,55.4,68,29.87,1.8,WSW,16.1,36.8,0.14,Rain-Thunderstorm,Heavy Rain,250,2013-08-26 03:51:00
8:53 PM,66.0,55.9,70,29.84,1.5,WSW,25.3,41.4,0.17,Rain-Thunderstorm,Heavy Thunderstorms and Rain,240,2013-08-26 03:53:00
9:03 PM,62.6,55.4,77,29.90,3.0,West,12.7,32.2,0.05,Rain-Thunderstorm,Light Thunderstorms and Rain,260,2013-08-26 04:03:00
9:37 PM,62.6,53.6,72,29.90,10.0,Variable,4.6,-,0.06,,Clear,0,2013-08-26 04:37:00
9:53 PM,63.0,54.0,72,29.88,10.0,Calm,Calm,-,0.06,Thunderstorm,Clear,0,2013-08-26 04:53:00
10:02 PM,62.6,55.4,77,29.92,10.0,ESE,9.2,-,N/A,,Partly Cloudy,110,2013-08-26 05:02:00
10:53 PM,61.0,55.9,83,29.89,10.0,Calm,Calm,-,N/A,,Overcast,0,2013-08-26 05:53:00
11:53 PM,60.1,55.9,86,29.88,10.0,Calm,Calm,-,N/A,,Scattered Clouds,0,2013-08-26 06:53:00